Regional Weather Roundup
Issued by NWS Northern Indiana

Home | Current Version | Previous Version | Graphics & Text | Print | Product List | Glossary On
Versions: 1 2 3 4 5 6 7 8 9 10 11 12 13 14 15 16 17 18 19 20 21 22 23 24 25 26 27 28 29 30 31 32 33 34 35 36 37 38 39 40 41 42 43 44 45 46 47 48 49 50
000
ASUS43 KIWX 030000
RWRIWX

KIWX WEATHER ROUNDUP
NATIONAL WEATHER SERVICE NORTHERN INDIANA
800 PM EDT WED SEP 02 2015

NOTE: "FAIR" INDICATES FEW OR NO CLOUDS BELOW 12,000 FEET WITH NO
SIGNIFICANT WEATHER AND/OR OBSTRUCTIONS TO VISIBILITY.

* THESE STATIONS ARE NOT UNDER NWS QUALITY CONTROL. THEY ALSO MAY NOT
  REPORT WEATHER SUCH AS PRECIPITATION OR FOG.

INZ001>027-030100-
NORTHERN INDIANA

CITY           SKY/WX    TMP DP  RH WIND       PRES   REMARKS
GARY*          MOCLDY    86  64  48 W12       29.96S
SOUTH BEND     PTCLDY    82  70  66 CALM      29.99R
6HR MIN TEMP:  82; 6HR MAX TEMP:  90;

ELKHART*       PTCLDY    81  72  74 CALM      29.99R
GOSHEN         PTCLDY    81  70  69 CALM      29.99R
6HR MIN TEMP:  81; 6HR MAX TEMP:  89;

ANGOLA*        CLEAR     81  75  83 CALM      30.00R
FORT WAYNE     PTCLDY    81  69  67 CALM      30.00R
6HR MIN TEMP:  81; 6HR MAX TEMP:  89; 6HR PCP: TRACE;

PERU/GRISSOM   CLEAR     81  69  67 W6        29.99R
6HR MIN TEMP:  81; 6HR MAX TEMP:  91;


$$
INZ028>050-030100-
CENTRAL INDIANA

CITY           SKY/WX    TMP DP  RH WIND       PRES   REMARKS
LAFAYETTE      PTCLDY    83  69  62 SW3       29.98F
6HR MIN TEMP:  83; 6HR MAX TEMP:  90;

KOKOMO*        CLEAR     82  66  57 W6        30.00S
6HR MIN TEMP:  82; 6HR MAX TEMP:  91;

MUNCIE*        CLEAR     79  69  71 W6        30.01R
6HR MIN TEMP:  79; 6HR MAX TEMP:  87;

INDIANAPOLIS   PTCLDY    82  68  62 SW7       30.00S
6HR MIN TEMP:  82; 6HR MAX TEMP:  90;


$$
MIZ043>046-050>051-056>058-064>065-071>073-077>080-030100-
SOUTHWEST LOWER MICHIGAN

CITY           SKY/WX    TMP DP  RH WIND       PRES   REMARKS
BATTLE CREEK   PTCLDY    81  70  69 W3        29.99F
6HR MIN TEMP:  81; 6HR MAX TEMP:  90;

BENTON HARBOR  PTCLDY    83  70  64 S3        29.96S
6HR MIN TEMP:  83; 6HR MAX TEMP:  86;

COLDWATER*     PTCLDY    81  68  64 CALM      29.99S
6HR MIN TEMP:  81; 6HR MAX TEMP:  91;

HILLSDALE*     PTCLDY    78  74  88 CALM      30.01S
6HR MIN TEMP:  77; 6HR MAX TEMP:  89;

HOLLAND        CLEAR     79  71  76 CALM      29.97S
6HR MIN TEMP:  78; 6HR MAX TEMP:  86;

GRAND RAPIDS   MOCLDY    81  68  64 W6        29.97S
6HR MIN TEMP:  81; 6HR MAX TEMP:  89;

KALAMAZOO      PTCLDY    82  67  60 NW3       29.99S
6HR MIN TEMP:  82; 6HR MAX TEMP:  89;

STURGIS*       PTCLDY    79  73  83 SW3       29.99S
THREE RIVERS*  FAIR      80  71  74 CALM      29.99S
6HR MIN TEMP:  80; 6HR MAX TEMP:  90;


$$
OHZ001>008-015>018-024>025-030100-
NORTHWEST OHIO

CITY           SKY/WX    TMP DP  RH WIND       PRES   REMARKS
DEFIANCE       CLEAR     83  68  60 CALM      29.98S
6HR MIN TEMP:  83; 6HR MAX TEMP:  91;

FINDLAY        CLEAR     79  71  76 S7        29.98R
6HR MIN TEMP:  79; 6HR MAX TEMP:  90;

TOLEDO EXPRESS CLEAR     77  75  93 CALM      29.96F
6HR MIN TEMP:  72; 6HR MAX TEMP:  87; 6HR PCP:  0.11;

TOLEDO METCALF PTCLDY    81  71  71 CALM      29.97S
6HR MIN TEMP:  76; 6HR MAX TEMP:  88;

LIMA           PTCLDY    80  67  64 CALM      30.00R
6HR MIN TEMP:  80; 6HR MAX TEMP:  89;


$$
AND FOR LAKE MICHIGAN COASTAL AND OPEN LAKE BUOY OBSERVATIONS

STATION/POSITION TEMP    WIND        PRES    VSBY  WAVE
                 AIR SEA DIR/SP/G                  HT/PER
                 (F)     (DEG/KT/KT) (MB)    (MI)  (FT/S)
CALUMET HARBOR    86     200/  9/ 13   N/A
MICHIGAN CITY     83     330/  3/  4   N/A
BURNS HARBOR      86     220/  7/ 10 1014.9S
SAINT JOSEPH      86      CALM  /  4 1014.9F
SOUTH LAKE BUOY   74 72  160/  6/  6 1013.6S         0
4 MI NW BRIDGMAN  80 75  170/  4/  4   N/A           1
MICHIGAN CITY     82 76  340/  2/  6   N/A           0

$$
&&



USA.gov is the U.S. government's official web portal to all federal, state and local government web resources and services.